This is the latest recevied weather packets stored in our database for station/object IZ1MEU-13. If no packets are shown the sender has not sent any weather packets the latest 10 day(s).
| Time | Temp. | Humidity | Pressure | Rain* | Wind** | Luminosity | Snow |
|---|---|---|---|---|---|---|---|
| 1788537052 | 30° C | 36% | 1020.5 hPa | - | - | - | - |
| 1788535848 | 30.56° C | 35% | 1020.6 hPa | - | - | - | - |
| 1788534644 | 31.11° C | 34% | 1020.5 hPa | - | - | - | - |
| 1788533440 | 31.11° C | 34% | 1020.8 hPa | - | - | - | - |
| 1788532236 | 31.11° C | 34% | 1020.9 hPa | - | - | - | - |
| 1788531031 | 31.11° C | 34% | 1020.9 hPa | - | - | - | - |
| 1788529827 | 30.56° C | 34% | 1021.1 hPa | - | - | - | - |
| 1788528623 | 30° C | 35% | 1021.3 hPa | - | - | - | - |
| 1788527420 | 29.44° C | 35% | 1021.3 hPa | - | - | - | - |
| 1788526216 | 28.89° C | 36% | 1021.5 hPa | - | - | - | - |
| 1788525013 | 28.33° C | 37% | 1021.8 hPa | - | - | - | - |
| 1788523809 | 28.33° C | 38% | 1022 hPa | - | - | - | - |
| 1788522606 | 27.78° C | 38% | 1022.1 hPa | - | - | - | - |
| 1788521402 | 27.78° C | 38% | 1022.2 hPa | - | - | - | - |
| 1788520199 | 27.22° C | 39% | 1022.6 hPa | - | - | - | - |
| 1788518995 | 26.67° C | 39% | 1022.8 hPa | - | - | - | - |
| 1788517792 | 26.11° C | 40% | 1023.1 hPa | - | - | - | - |
| 1788516588 | 25.56° C | 40% | 1023.3 hPa | - | - | - | - |
| 1788515385 | 25.56° C | 40% | 1023.6 hPa | - | - | - | - |
| 1788514181 | 25.56° C | 40% | 1023.6 hPa | - | - | - | - |
| 1788512978 | 25° C | 40% | 1023.6 hPa | - | - | - | - |
| 1788511774 | 24.44° C | 41% | 1023.5 hPa | - | - | - | - |
| 1788510571 | 24.44° C | 41% | 1023.4 hPa | - | - | - | - |
| 1788509367 | 23.89° C | 42% | 1023.3 hPa | - | - | - | - |
| 1788508164 | 23.33° C | 42% | 1023.4 hPa | - | - | - | - |
* Rain since midnight (hover to see other rain measurements)
** Current wind speed in m/s (hover to see current wind gust speed)